Flag for U.S.A. Weather past 2 weeks in Paradise, Nevada, U.S.A.

73 °F

Passing clouds.

Feels Like: 77 °F
Forecast: 60 / 85 °F
Wind: 7 mph from North

Location: McCarran International Airport

Current Time: Oct 6, 2015 at 7:38:41 PM

Latest Report: Oct 6, 2015 at 6:56 PM

Visibility: 10 mi

Pressure: 29.98 "Hg (27.84 "Hg at 643m altitude)

Humidity: 41%

Dew point: 48 °F

Location of ParadiseLocation

Historic Weather in Paradise — Graph


Paradise temperature yesterday

Maximum temperature yesterday: 70 °F (at 12:56 AM)
Minimum temperature yesterday: 57 °F (at 9:56 PM)
Average temperature yesterday: 64 °F

Past Weeks' High & Low Weather Summary

High102 °F (Sep 24, 3:56 PM)96% (Oct 6, 1:56 AM)30.08 "Hg (Oct 6, 1:56 AM)
Low57 °F (Oct 5, 9:56 PM)9% (Sep 21, 5:56 PM)29.41 "Hg (Oct 3, 5:56 PM)
Average83 °F28%29.74 "Hg
* Reported Sep 21 5:56 PM — Oct 6 5:56 PM, Paradise, Weather by CustomWeather, © 2015

Note: Actual official high and low records may vary slightly from our data, if they occured in-between our weather recording intervals... More about our weather records


Paradise weather history for previous 24 hours

Time TempWeatherWind HumidityBarometerVisibility
5:56 PM
Tue, Oct 6
75 °FPassing clouds.7 mph36%29.97 "Hg10 mi
4:56 PM76 °FScattered clouds.7 mph35%29.96 "Hg10 mi
3:56 PM76 °FScattered clouds.5 mph33%29.98 "Hg10 mi
2:56 PM76 °FScattered clouds.7 mph35%29.98 "Hg10 mi
1:56 PM74 °FScattered clouds.3 mph40%30.01 "Hg10 mi
12:56 PM73 °FScattered clouds.7 mph44%30.03 "Hg10 mi
11:56 AM71 °FScattered clouds.7 mph51%30.05 "Hg10 mi
10:56 AM69 °FPassing clouds.9 mph57%30.07 "Hg10 mi
9:56 AM66 °FPassing clouds.6 mph68%30.08 "Hg10 mi
8:56 AM64 °FPassing clouds.5 mph70%30.08 "Hg10 mi
7:56 AM62 °FScattered clouds.3 mph80%30.05 "Hg10 mi
6:56 AM59 °FPartly cloudy.3 mph90%30.03 "Hg10 mi
5:56 AM60 °FPartly cloudy.No wind83%30.02 "Hg10 mi
4:56 AM59 °FPartly cloudy.3 mph84%29.99 "Hg10 mi
3:56 AM59 °FPassing clouds.No wind90%29.98 "Hg10 mi
2:56 AM60 °FOvercast.No wind83%29.97 "Hg10 mi
1:56 AM60 °FMostly cloudy.No wind96%29.97 "Hg10 mi
12:56 AM59 °FPassing clouds.3 mph78%29.98 "Hg10 mi
11:56 PM
Mon, Oct 5
59 °FLight rain. Mostly cloudy.5 mph75%29.97 "Hg10 mi
10:56 PM58 °FMostly cloudy.5 mph75%29.98 "Hg10 mi
9:56 PM57 °FPartly cloudy.10 mph51%29.97 "Hg8 mi
8:56 PM58 °FHeavy rain. Mostly cloudy.12 mph93%29.95 "Hg9 mi
7:56 PM62 °FLight rain. Mostly cloudy.5 mph90%29.91 "Hg10 mi
Weather by CustomWeather, © 2015

See weather overviewHow to use our weather pages